Location: Wavehorne
(51.0500°N, 0.8333°E)
Time: 17:38:42
(UTC+00:00)

DELTA 2 DEB (DPAF) - Pass Details

Date: 20 June 2021
Orbit: 639 x 645 km, 98.4° (Epoch: 30 July)

Event Time Altitude Azimuth Distance (km) Brightness Sun altitude
Exits shadow 02:45:40 - 181° (S) 2,717 6.9 -6.9°
Reaches altitude 10° 02:47:23 10° 186° (S) 2,038 6.2 -6.7°
Maximum altitude 02:51:40 47° 260° (W) 859 4.5 -6.3°
Drops below altitude 10° 02:55:59 10° 335° (NNW) 2,051 7.1 -5.9°
Sets 02:58:17 0° 341° (NNW) 2,965 8.0 -5.7°
